Regional Weather Roundup
Issued by NWS

Home | Current Version | Previous Version | Graphics & Text | Print | Product List | Glossary On
Versions: 1 2 3 4 5 6 7 8 9 10 11 12 13 14 15 16 17 18 19 20 21 22 23 24 25 26 27 28 29 30 31 32 33 34 35 36 37 38 39 40 41 42 43 44 45 46 47 48 49 50
000
ASUS45 KCYS 041510
RWRWY

WYOMING REGIONAL WEATHER ROUNDUP
NATIONAL WEATHER SERVICE CHEYENNE WY
900 AM MDT MON MAY 04 2015

NOTE:  "FAIR" INDICATES FEW OR NO CLOUDS BELOW 12,000 FEET
WITH NO SIGNIFICANT WEATHER AND/OR OBSTRUCTIONS TO VISIBILITY.

WYZ001-041600-
YELLOWSTONE NATIONAL PARK

CITY           SKY/WX    TMP DP  RH WIND       PRES   REMARKS
LK YELLOWSTONE   N/A     35  32  88 SE3       30.15S
W YELLOWSTONE  NOT AVBL

$$
WYZ002>013-054>058-071-098>099-041600-
NORTHERN WYOMING

CITY           SKY/WX    TMP DP  RH WIND       PRES   REMARKS
JACKSON        MOSUNNY   43  37  81 CALM      30.12S
CODY           FAIR      55  41  58 SW9       30.04S
GREYBULL       FAIR      57  40  52 CALM      30.01F
WORLAND        FAIR      57  45  64 VRB6      30.02S
SHERIDAN       FAIR      57  45  64 SE14      30.03R
BUFFALO        CLOUDY    52  44  74 SE13      30.07S
GILLETTE       PTSUNNY   50  39  66 SE23G30   30.08F
HULETT         CLOUDY    46  43  87 E13       30.14F
NEWCASTLE      PTSUNNY   45  34  65 SE18G25   30.16R

$$
WYZ014>020-022>026-101>103-041600-
CENTRAL WYOMING

CITY           SKY/WX    TMP DP  RH WIND       PRES   REMARKS
BIG PINEY      FAIR      44  38  79 VRB3      30.13S
PINEDALE       FAIR      41  37  87 NW5       30.13S
DUBOIS         FAIR      43  34  70 CALM      30.10S
LANDER         FAIR      51  41  68 SE5       30.06S
RIVERTON       FAIR      54  41  61 VRB3      30.07S
CASPER         CLOUDY    49  45  86 NW5       30.07S
DOUGLAS        CLOUDY    50  41  71 SE22G28   30.09S

$$
WYZ021-027>030-104>119-041600-
SOUTHERN WYOMING

CITY           SKY/WX    TMP DP  RH WIND       PRES   REMARKS
EVANSTON       FAIR      50  40  68 E12       30.10R
KEMMERER       FAIR      45  39  81 CALM      30.12S
FORT BRIDGER   MOSUNNY   48  43  81 E5        30.14S
ROCK SPRINGS   FAIR      49  40  71 NE5       30.10S
DIXON          CLOUDY    52  42  70 E5        30.12S
RAWLINS        FAIR      50  41  71 VRB5      30.12R
SARATOGA       CLOUDY    45  37  76 SE3       30.13R
LARAMIE        CLOUDY    45  41  86 SE18      30.12R
CHEYENNE       CLOUDY    47  38  71 S10       30.14F
TORRINGTON     CLOUDY    50  38  63 E7        30.15R
PINE BLUFFS    CLOUDY    46  36  66 SE8       30.16S

$$



USA.gov is the U.S. government's official web portal to all federal, state and local government web resources and services.